Time,TemperatureF,DewpointF,PressureIn,WindDirection,WindDirectionDegrees,WindSpeedMPH,WindSpeedGustMPH,Humidity,HourlyPrecipIn,Conditions,Clouds,dailyrainin,SoftwareType,DateUTC
2013-05-09 00:03:00,67.0,61.0,30.00,South,172,3.0,7.0,81,0.00,,,0.00,,2013-05-09 04:03:00,
2013-05-09 00:12:00,67.0,61.0,30.00,South,172,3.0,7.0,81,0.00,,,0.00,,2013-05-09 04:12:00,
2013-05-09 00:23:00,66.0,60.0,30.00,WSW,242,3.0,7.0,82,0.00,,,0.00,,2013-05-09 04:23:00,
2013-05-09 00:33:00,66.0,61.0,30.00,SSW,200,3.0,6.0,83,0.00,,,0.00,,2013-05-09 04:33:00,
2013-05-09 00:43:00,66.0,61.0,30.00,SSW,200,3.0,6.0,83,0.00,,,0.00,,2013-05-09 04:43:00,
2013-05-09 00:52:00,66.0,61.0,29.99,SSW,198,2.0,8.0,83,0.00,,,0.00,,2013-05-09 04:52:00,
2013-05-09 01:02:00,66.0,61.0,29.99,WSW,258,2.0,7.0,83,0.00,,,0.00,,2013-05-09 05:02:00,
2013-05-09 01:12:00,66.0,61.0,29.99,WSW,258,2.0,7.0,83,0.00,,,0.00,,2013-05-09 05:12:00,
2013-05-09 01:22:00,66.0,61.0,29.99,South,180,1.0,5.0,83,0.00,,,0.00,,2013-05-09 05:22:00,
2013-05-09 01:32:00,66.0,61.0,29.99,SW,223,0.0,5.0,83,0.00,,,0.00,,2013-05-09 05:32:00,
2013-05-09 01:42:00,65.0,60.0,29.98,WSW,237,1.0,7.0,84,0.00,,,0.00,,2013-05-09 05:42:00,
2013-05-09 01:51:00,65.0,60.0,29.98,WSW,237,1.0,7.0,84,0.00,,,0.00,,2013-05-09 05:51:00,
2013-05-09 02:02:00,65.0,60.0,29.98,SW,235,2.0,6.0,85,0.00,,,0.00,,2013-05-09 06:02:00,
2013-05-09 02:12:00,65.0,60.0,29.98,SW,235,2.0,6.0,85,0.00,,,0.00,,2013-05-09 06:12:00,
2013-05-09 02:21:00,65.0,60.0,29.98,South,179,1.0,6.0,85,0.00,,,0.00,,2013-05-09 06:21:00,
2013-05-09 02:32:00,65.0,61.0,29.97,WSW,258,2.0,7.0,86,0.00,,,0.00,,2013-05-09 06:32:00,
2013-05-09 02:42:00,65.0,61.0,29.97,WSW,255,1.0,7.0,86,0.00,,,0.00,,2013-05-09 06:42:00,
2013-05-09 02:52:00,65.0,61.0,29.97,WSW,255,1.0,7.0,86,0.00,,,0.00,,2013-05-09 06:52:00,
2013-05-09 03:01:00,65.0,61.0,29.97,West,259,3.0,9.0,86,0.00,,,0.00,,2013-05-09 07:01:00,
2013-05-09 03:12:00,65.0,61.0,29.97,West,263,3.0,8.0,86,0.00,,,0.00,,2013-05-09 07:12:00,
2013-05-09 03:21:00,65.0,61.0,29.97,West,263,3.0,8.0,86,0.00,,,0.00,,2013-05-09 07:21:00,
2013-05-09 03:32:00,65.0,61.0,29.97,West,266,3.0,8.0,86,0.00,,,0.00,,2013-05-09 07:32:00,
2013-05-09 03:42:00,65.0,61.0,29.97,West,266,3.0,8.0,86,0.00,,,0.00,,2013-05-09 07:42:00,
2013-05-09 03:52:00,65.0,60.0,29.96,SW,214,1.0,6.0,85,0.00,,,0.00,,2013-05-09 07:52:00,
2013-05-09 04:02:00,64.0,60.0,29.97,West,267,3.0,8.0,86,0.00,,,0.00,,2013-05-09 08:02:00,
2013-05-09 04:11:00,64.0,60.0,29.97,West,267,3.0,8.0,86,0.00,,,0.00,,2013-05-09 08:11:00,
2013-05-09 04:21:00,64.0,59.0,29.97,WSW,251,5.0,8.0,85,0.00,,,0.00,,2013-05-09 08:21:00,
2013-05-09 04:32:00,64.0,59.0,29.97,SW,219,3.0,8.0,84,0.00,,,0.00,,2013-05-09 08:32:00,
2013-05-09 04:42:00,65.0,60.0,29.97,SW,236,3.0,9.0,84,0.00,,,0.00,,2013-05-09 08:42:00,
2013-05-09 04:52:00,65.0,60.0,29.97,SW,236,3.0,9.0,84,0.00,,,0.00,,2013-05-09 08:52:00,
2013-05-09 05:02:00,64.0,59.0,29.96,WSW,247,4.0,9.0,84,0.00,,,0.00,,2013-05-09 09:02:00,
2013-05-09 05:11:00,64.0,59.0,29.96,WSW,247,4.0,9.0,84,0.00,,,0.00,,2013-05-09 09:11:00,
2013-05-09 05:21:00,64.0,59.0,29.97,West,275,5.0,13.0,84,0.00,,,0.00,,2013-05-09 09:21:00,
2013-05-09 05:32:00,64.0,59.0,29.97,West,265,5.0,12.0,84,0.00,,,0.00,,2013-05-09 09:32:00,
2013-05-09 05:43:00,64.0,59.0,29.97,WSW,242,5.0,12.0,84,0.00,,,0.00,,2013-05-09 09:43:00,
2013-05-09 05:53:00,64.0,59.0,29.97,WSW,242,5.0,12.0,84,0.00,,,0.00,,2013-05-09 09:53:00,
2013-05-09 06:02:00,64.0,59.0,29.98,WSW,248,6.0,9.0,85,0.00,,,0.00,,2013-05-09 10:02:00,
2013-05-09 06:12:00,63.0,58.0,29.98,WSW,244,4.0,9.0,85,0.00,,,0.00,,2013-05-09 10:12:00,
2013-05-09 06:22:00,63.0,58.0,29.98,WSW,244,4.0,9.0,85,0.00,,,0.00,,2013-05-09 10:22:00,
2013-05-09 06:33:00,63.0,58.0,29.98,WSW,255,5.0,8.0,85,0.00,,,0.00,,2013-05-09 10:33:00,
2013-05-09 06:42:00,63.0,58.0,29.99,WSW,257,3.0,9.0,85,0.00,,,0.00,,2013-05-09 10:42:00,
2013-05-09 06:53:00,63.0,58.0,29.99,WSW,257,3.0,9.0,85,0.00,,,0.00,,2013-05-09 10:53:00,
2013-05-09 07:02:00,63.0,59.0,30.00,West,274,3.0,8.0,86,0.00,,,0.00,,2013-05-09 11:02:00,
2013-05-09 07:12:00,63.0,59.0,30.00,West,259,3.0,9.0,86,0.00,,,0.00,,2013-05-09 11:12:00,
2013-05-09 07:22:00,63.0,59.0,30.00,West,259,3.0,9.0,86,0.00,,,0.00,,2013-05-09 11:22:00,
2013-05-09 07:32:00,63.0,59.0,30.01,West,261,2.0,11.0,86,0.00,,,0.00,,2013-05-09 11:32:00,
2013-05-09 07:42:00,63.0,59.0,30.01,West,261,2.0,11.0,86,0.00,,,0.00,,2013-05-09 11:42:00,
2013-05-09 07:52:00,64.0,60.0,30.01,SSW,207,4.0,9.0,86,0.00,,,0.00,,2013-05-09 11:52:00,
2013-05-09 08:01:00,64.0,59.0,30.01,WSW,243,7.0,13.0,85,0.00,,,0.00,,2013-05-09 12:01:00,
2013-05-09 08:11:00,65.0,60.0,30.02,WSW,241,5.0,11.0,84,0.00,,,0.00,,2013-05-09 12:11:00,
2013-05-09 08:22:00,65.0,60.0,30.02,WSW,241,5.0,11.0,84,0.00,,,0.00,,2013-05-09 12:22:00,
2013-05-09 08:32:00,66.0,60.0,30.02,West,267,4.0,11.0,82,0.00,,,0.00,,2013-05-09 12:32:00,
2013-05-09 08:42:00,67.0,61.0,30.03,West,271,4.0,9.0,80,0.00,,,0.00,,2013-05-09 12:42:00,
2013-05-09 08:52:00,67.0,61.0,30.03,West,271,4.0,9.0,80,0.00,,,0.00,,2013-05-09 12:52:00,
2013-05-09 09:01:00,67.0,60.0,30.03,NW,315,4.0,8.0,78,0.00,,,0.00,,2013-05-09 13:01:00,
2013-05-09 09:12:00,67.0,60.0,30.03,NW,315,4.0,8.0,78,0.00,,,0.00,,2013-05-09 13:12:00,
2013-05-09 09:22:00,68.0,61.0,30.03,NW,325,4.0,11.0,77,0.00,,,0.00,,2013-05-09 13:22:00,
2013-05-09 09:32:00,69.0,61.0,30.03,WSW,245,3.0,10.0,76,0.00,,,0.00,,2013-05-09 13:32:00,
2013-05-09 09:42:00,69.0,61.0,30.04,WNW,290,3.0,12.0,76,0.00,,,0.00,,2013-05-09 13:42:00,
2013-05-09 09:52:00,69.0,61.0,30.04,WNW,290,3.0,12.0,76,0.00,,,0.00,,2013-05-09 13:52:00,
2013-05-09 10:02:00,70.0,61.0,30.04,West,278,2.0,7.0,74,0.00,,,0.00,,2013-05-09 14:02:00,
2013-05-09 10:11:00,70.0,61.0,30.04,West,278,2.0,7.0,74,0.00,,,0.00,,2013-05-09 14:11:00,
2013-05-09 10:22:00,70.0,61.0,30.04,West,278,2.0,7.0,74,0.00,,,0.00,,2013-05-09 14:22:00,
2013-05-09 10:32:00,73.0,62.0,30.04,NW,315,3.0,7.0,69,0.00,,,0.00,,2013-05-09 14:32:00,
2013-05-09 10:42:00,73.0,62.0,30.05,West,277,2.0,6.0,69,0.00,,,0.00,,2013-05-09 14:42:00,
2013-05-09 10:52:00,73.0,62.0,30.05,West,277,2.0,6.0,69,0.00,,,0.00,,2013-05-09 14:52:00,
2013-05-09 11:01:00,74.0,62.0,30.05,West,267,2.0,7.0,66,0.00,,,0.00,,2013-05-09 15:01:00,
2013-05-09 11:11:00,74.0,62.0,30.05,West,267,2.0,7.0,66,0.00,,,0.00,,2013-05-09 15:11:00,
2013-05-09 11:22:00,73.0,63.0,30.04,SSE,148,4.0,7.0,70,0.00,,,0.00,,2013-05-09 15:22:00,
2013-05-09 11:33:00,71.0,63.0,30.05,SSE,166,5.0,9.0,77,0.00,,,0.00,,2013-05-09 15:33:00,
2013-05-09 11:43:00,71.0,63.0,30.05,SSE,163,4.0,7.0,77,0.00,,,0.00,,2013-05-09 15:43:00,
2013-05-09 11:53:00,71.0,63.0,30.05,SSE,163,4.0,7.0,77,0.00,,,0.00,,2013-05-09 15:53:00,
2013-05-09 12:03:00,70.0,63.0,30.05,SSE,167,4.0,9.0,79,0.00,,,0.00,,2013-05-09 16:03:00,
2013-05-09 12:12:00,71.0,64.0,30.05,SSE,165,4.0,9.0,79,0.00,,,0.00,,2013-05-09 16:12:00,
2013-05-09 12:23:00,71.0,64.0,30.05,SSE,165,4.0,9.0,79,0.00,,,0.00,,2013-05-09 16:23:00,
2013-05-09 12:33:00,70.0,63.0,30.05,SSW,213,3.0,10.0,78,0.00,,,0.00,,2013-05-09 16:33:00,
2013-05-09 12:42:00,71.0,63.0,30.05,SSE,155,6.0,10.0,76,0.00,,,0.00,,2013-05-09 16:42:00,
2013-05-09 12:53:00,71.0,63.0,30.05,SSE,155,6.0,10.0,76,0.00,,,0.00,,2013-05-09 16:53:00,
2013-05-09 13:02:00,71.0,65.0,30.05,SE,144,3.0,11.0,80,0.00,,,0.00,,2013-05-09 17:02:00,
2013-05-09 13:12:00,71.0,65.0,30.05,SE,144,3.0,11.0,80,0.00,,,0.00,,2013-05-09 17:12:00,
2013-05-09 13:21:00,71.0,63.0,30.04,SE,138,7.0,11.0,77,0.00,,,0.00,,2013-05-09 17:21:00,
2013-05-09 13:32:00,72.0,64.0,30.04,SSE,149,6.0,11.0,76,0.00,,,0.00,,2013-05-09 17:32:00,
2013-05-09 13:42:00,72.0,64.0,30.04,SSE,149,6.0,11.0,76,0.00,,,0.00,,2013-05-09 17:42:00,
2013-05-09 13:55:00,71.0,65.0,30.04,South,180,3.0,10.0,80,0.00,,,0.00,,2013-05-09 17:55:00,
2013-05-09 14:01:00,72.0,65.0,30.04,SSE,156,4.0,10.0,80,0.00,,,0.00,,2013-05-09 18:01:00,
2013-05-09 14:12:00,72.0,65.0,30.04,SSE,156,4.0,10.0,80,0.00,,,0.00,,2013-05-09 18:12:00,
2013-05-09 14:21:00,71.0,66.0,30.03,SE,143,7.0,13.0,84,0.00,,,0.00,,2013-05-09 18:21:00,
2013-05-09 14:32:00,70.0,65.0,30.03,SSE,159,6.0,12.0,85,0.00,,,0.00,,2013-05-09 18:32:00,
2013-05-09 14:42:00,70.0,65.0,30.03,SSE,159,6.0,12.0,85,0.00,,,0.00,,2013-05-09 18:42:00,
2013-05-09 14:52:00,72.0,67.0,30.02,ESE,121,3.0,10.0,84,0.00,,,0.00,,2013-05-09 18:52:00,
2013-05-09 15:01:00,71.0,66.0,30.02,SSE,161,6.0,12.0,83,0.00,,,0.00,,2013-05-09 19:01:00,
2013-05-09 15:12:00,71.0,66.0,30.02,SSE,161,6.0,12.0,83,0.00,,,0.00,,2013-05-09 19:12:00,
2013-05-09 15:21:00,72.0,67.0,30.02,SSE,155,3.0,10.0,83,0.00,,,0.00,,2013-05-09 19:21:00,
2013-05-09 15:32:00,73.0,67.0,30.02,South,181,6.0,11.0,81,0.00,,,0.00,,2013-05-09 19:32:00,
2013-05-09 15:41:00,72.0,66.0,30.02,South,174,6.0,11.0,81,0.00,,,0.00,,2013-05-09 19:41:00,
2013-05-09 15:52:00,72.0,66.0,30.02,South,174,6.0,11.0,81,0.00,,,0.00,,2013-05-09 19:52:00,
2013-05-09 16:01:00,73.0,66.0,30.02,South,177,7.0,14.0,80,0.00,,,0.00,,2013-05-09 20:01:00,
2013-05-09 16:11:00,73.0,66.0,30.02,South,177,7.0,14.0,80,0.00,,,0.00,,2013-05-09 20:11:00,
2013-05-09 16:22:00,73.0,67.0,30.01,South,175,4.0,12.0,81,0.00,,,0.00,,2013-05-09 20:22:00,
2013-05-09 16:32:00,73.0,66.0,30.01,SE,138,5.0,9.0,80,0.00,,,0.00,,2013-05-09 20:32:00,
2013-05-09 16:42:00,72.0,65.0,30.01,SSE,162,4.0,9.0,80,0.00,,,0.00,,2013-05-09 20:42:00,
2013-05-09 16:52:00,72.0,65.0,30.01,SSE,162,4.0,9.0,80,0.00,,,0.00,,2013-05-09 20:52:00,
2013-05-09 17:02:00,73.0,66.0,30.01,SSE,158,6.0,11.0,79,0.00,,,0.00,,2013-05-09 21:02:00,
2013-05-09 17:12:00,73.0,66.0,30.01,SSE,158,6.0,11.0,79,0.00,,,0.00,,2013-05-09 21:12:00,
2013-05-09 17:22:00,72.0,65.0,30.01,SW,225,4.0,8.0,80,0.00,,,0.00,,2013-05-09 21:22:00,
2013-05-09 17:32:00,72.0,66.0,30.01,South,191,5.0,9.0,82,0.00,,,0.00,,2013-05-09 21:32:00,
2013-05-09 17:43:00,71.0,66.0,30.01,SE,143,4.0,9.0,83,0.00,,,0.00,,2013-05-09 21:43:00,
2013-05-09 17:53:00,71.0,66.0,30.01,SE,143,4.0,9.0,83,0.00,,,0.00,,2013-05-09 21:53:00,
2013-05-09 18:03:00,71.0,66.0,30.01,South,172,3.0,9.0,84,0.00,,,0.00,,2013-05-09 22:03:00,
2013-05-09 18:13:00,71.0,66.0,30.01,SSW,202,4.0,7.0,83,0.00,,,0.00,,2013-05-09 22:13:00,
2013-05-09 18:23:00,71.0,66.0,30.01,SSW,202,4.0,7.0,83,0.00,,,0.00,,2013-05-09 22:23:00,
2013-05-09 18:33:00,71.0,66.0,30.01,South,177,4.0,12.0,84,0.00,,,0.00,,2013-05-09 22:33:00,
2013-05-09 18:42:00,72.0,66.0,30.00,South,185,3.0,12.0,81,0.00,,,0.00,,2013-05-09 22:42:00,
2013-05-09 18:52:00,72.0,66.0,30.00,South,185,3.0,12.0,81,0.00,,,0.00,,2013-05-09 22:52:00,
2013-05-09 19:02:00,72.0,65.0,30.00,SSW,205,5.0,9.0,80,0.00,,,0.00,,2013-05-09 23:02:00,
2013-05-09 19:12:00,72.0,66.0,30.00,South,173,4.0,11.0,81,0.00,,,0.00,,2013-05-09 23:12:00,
2013-05-09 19:22:00,72.0,66.0,30.00,South,173,4.0,11.0,81,0.00,,,0.00,,2013-05-09 23:22:00,
2013-05-09 19:32:00,72.0,66.0,30.00,South,173,4.0,11.0,81,0.00,,,0.00,,2013-05-09 23:32:00,
2013-05-09 19:42:00,72.0,66.0,30.01,South,172,4.0,9.0,81,0.00,,,0.00,,2013-05-09 23:42:00,
2013-05-09 19:52:00,72.0,66.0,30.01,South,172,4.0,9.0,81,0.00,,,0.00,,2013-05-09 23:52:00,
2013-05-09 20:01:00,71.0,65.0,30.01,SE,142,3.0,8.0,82,0.00,,,0.00,,2013-05-10 00:01:00,
2013-05-09 20:11:00,71.0,66.0,30.01,SW,234,4.0,8.0,83,0.00,,,0.00,,2013-05-10 00:11:00,
2013-05-09 20:22:00,71.0,66.0,30.01,SW,234,4.0,8.0,83,0.00,,,0.00,,2013-05-10 00:22:00,
2013-05-09 20:32:00,71.0,66.0,30.02,SSE,163,4.0,9.0,83,0.00,,,0.00,,2013-05-10 00:32:00,
2013-05-09 20:42:00,70.0,65.0,30.03,South,184,3.0,8.0,85,0.00,,,0.00,,2013-05-10 00:42:00,
2013-05-09 20:52:00,70.0,65.0,30.03,South,184,3.0,8.0,85,0.00,,,0.00,,2013-05-10 00:52:00,
2013-05-09 21:01:00,70.0,65.0,30.03,South,184,3.0,8.0,85,0.00,,,0.00,,2013-05-10 01:01:00,
2013-05-09 21:11:00,70.0,66.0,30.03,SSE,153,3.0,6.0,86,0.00,,,0.00,,2013-05-10 01:11:00,
2013-05-09 21:21:00,70.0,66.0,30.03,SSE,153,3.0,6.0,86,0.00,,,0.00,,2013-05-10 01:21:00,
2013-05-09 21:32:00,69.0,65.0,30.04,SE,133,3.0,7.0,87,0.00,,,0.00,,2013-05-10 01:32:00,
2013-05-09 21:42:00,69.0,65.0,30.04,SE,133,3.0,7.0,87,0.00,,,0.00,,2013-05-10 01:42:00,
2013-05-09 21:52:00,69.0,65.0,30.04,SE,133,3.0,7.0,87,0.00,,,0.00,,2013-05-10 01:52:00,
2013-05-09 22:02:00,69.0,66.0,30.06,South,190,1.0,6.0,89,0.00,,,0.00,,2013-05-10 02:02:00,
2013-05-09 22:11:00,68.0,65.0,30.06,SSW,202,0.0,6.0,89,0.00,,,0.00,,2013-05-10 02:11:00,
2013-05-09 22:21:00,68.0,65.0,30.06,SSW,202,0.0,6.0,89,0.00,,,0.00,,2013-05-10 02:21:00,
2013-05-09 22:32:00,68.0,65.0,30.06,SSW,201,0.0,3.0,89,0.00,,,0.00,,2013-05-10 02:32:00,
2013-05-09 22:42:00,68.0,64.0,30.06,WSW,249,1.0,5.0,88,0.00,,,0.00,,2013-05-10 02:42:00,
2013-05-09 22:52:00,68.0,64.0,30.06,WSW,249,1.0,5.0,88,0.00,,,0.00,,2013-05-10 02:52:00,
2013-05-09 23:01:00,69.0,64.0,30.06,South,175,1.0,6.0,85,0.00,,,0.00,,2013-05-10 03:01:00,
2013-05-09 23:11:00,69.0,64.0,30.06,South,175,1.0,6.0,85,0.00,,,0.00,,2013-05-10 03:11:00,
2013-05-09 23:22:00,69.0,64.0,30.06,SE,139,1.0,5.0,83,0.00,,,0.00,,2013-05-10 03:22:00,
2013-05-09 23:33:00,69.0,64.0,30.06,WSW,246,0.0,3.0,83,0.00,,,0.00,,2013-05-10 03:33:00,
2013-05-09 23:43:00,69.0,64.0,30.06,WSW,246,0.0,3.0,83,0.00,,,0.00,,2013-05-10 03:43:00,
2013-05-09 23:53:00,69.0,64.0,30.06,WSW,257,0.0,3.0,83,0.00,,,0.00,,2013-05-10 03:53:00,